Lid_Strength_Index
7 7 7 7 7 8 8 9 11 13 13 10 12 11 13 14 13 12 11 10 9 8 8 8 7 8 8 8 8 9 9 9 9 9 9 9 9 8
8 8 7 7 8 8 8 8 9 11 13 10 11 12 12 12 13 12 12 11 10 10 9 9 9 9 9 9 9 9 9 9 9 9 9 9 9 8
9 9 8 7 8 8 8 8 10 10 12 11 10 12 12 13 13 12 12 11 11 10 10 10 10 10 10 10 10 9 9 9 9 10 10 9 9 9
10 10 9 8 8 8 8 8 9 9 11 12 11 12 12 12 13 13 13 12 12 10 10 11 11 10 10 10 10 9 10 10 11 11 10 10 10 9
11 10 9 9 9 8 8 8 8 9 9 10 11 11 12 12 13 13 13 13 13 12 12 12 11 10 10 9 9 10 10 11 11 11 11 11 10 9
11 10 10 9 9 9 7 9 8 9 9 10 11 11 11 12 13 13 14 13 14 13 13 13 12 11 10 10 10 11 11 11 11 11 12 11 11 10
11 11 10 9 8 7 7 8 9 10 10 11 12 12 12 12 13 13 14 14 14 14 14 14 13 13 13 12 11 11 11 12 11 12 12 12 12 11
12 11 10 9 8 7 7 8 8 10 11 12 13 14 13 13 12 13 14 14 15 13 14 14 14 15 15 12 11 11 12 12 12 12 12 12 12 11
13 12 11 9 7 7 8 8 9 9 9 11 13 13 13 13 12 13 13 14 15 15 14 15 14 15 15 14 11 12 12 12 12 12 12 12 12 12
13 12 12 10 8 8 9 8 8 9 10 10 11 12 13 12 12 12 13 14 14 14 14 16 15 16 15 15 12 12 12 12 12 12 11 11 12 12
13 12 12 9 8 8 9 10 9 10 9 10 10 11 12 12 12 12 14 14 15 16 14 15 16 16 16 15 14 13 13 13 12 12 12 11 11 11
13 12 11 9 9 9 10 11 11 11 11 11 11 11 12 13 13 14 13 14 15 15 15 15 15 15 15 15 14 14 14 13 13 13 12 11 10 11
14 13 12 10 10 9 10 11 11 10 10 10 11 12 12 12 13 13 13 13 13 14 14 14 14 14 14 16 15 14 14 14 14 14 13 11 10 10
15 13 12 11 11 10 11 11 11 11 10 11 11 12 13 13 12 13 13 13 13 13 13 13 13 13 14 15 16 14 14 14 14 14 13 11 10 10
15 14 12 12 12 13 12 12 13 13 12 12 12 12 12 11 11 12 12 12 12 13 13 13 12 13 12 15 16 16 15 14 14 13 12 12 12 12
17 15 14 13 13 13 13 13 13 14 14 14 13 12 11 11 12 12 12 12 13 14 13 12 12 12 14 15 15 15 14 15 13 12 12 11 11 12
18 15 15 15 15 14 13 13 14 14 15 14 14 13 12 11 12 12 12 12 14 15 14 13 13 13 13 14 15 14 14 13 12 12 12 12 12 12
18 18 17 17 17 16 14 14 14 15 16 15 15 14 14 13 12 12 13 13 14 14 15 14 13 14 14 13 13 14 13 13 12 11 12 12 12 12
19 19 19 19 17 16 15 14 16 16 16 16 17 16 15 14 13 14 14 14 15 15 15 14 13 13 15 17 14 12 13 12 11 12 12 12 12 12
21 21 20 19 18 17 17 17 17 17 17 18 17 17 17 15 15 15 15 15 15 14 15 15 14 13 14 15 15 13 12 12 12 12 12 11 11 11
21 21 21 20 20 19 19 19 19 19 19 18 18 18 18 17 16 15 15 15 15 15 16 16 16 17 15 12 14 14 12 11 12 12 12 11 11 11
21 21 21 21 21 21 21 21 20 20 20 19 19 19 19 18 17 16 15 15 15 15 15 14 13 12 12 13 14 14 13 11 11 11 11 11 12 12
21 21 21 21 22 22 22 21 21 21 21 21 20 20 19 19 18 16 15 15 14 14 13 13 12 12 13 12 13 13 12 12 12 11 11 11 11 11